This is the latest recevied weather packets stored in our database for station/object DO6DD-13. If no packets are shown the sender has not sent any weather packets the latest 10 day(s).
| Time | Temp. | Humidity | Pressure | Rain* | Wind** | Luminosity | Snow |
|---|---|---|---|---|---|---|---|
| 1777920617 | 17.22° C | 77% | 1012.5 hPa | - | - | 4 W/m² | - |
| 1777920016 | 17.22° C | 76% | 1012.6 hPa | - | - | 4 W/m² | - |
| 1777919416 | 17.78° C | 75% | 1012.5 hPa | - | - | 6 W/m² | - |
| 1777918815 | 17.78° C | 75% | 1012.5 hPa | - | - | 12 W/m² | - |
| 1777918215 | 17.78° C | 75% | 1012.5 hPa | - | - | 12 W/m² | - |
| 1777917624 | 17.78° C | 74% | 1012.5 hPa | - | - | 14 W/m² | - |
| 1777917024 | 17.78° C | 73% | 1012.5 hPa | - | - | 20 W/m² | - |
| 1777916423 | 18.33° C | 72% | 1012.4 hPa | - | - | 26 W/m² | - |
| 1777915823 | 18.33° C | 72% | 1012.4 hPa | - | - | 30 W/m² | - |
| 1777915222 | 18.33° C | 71% | 1012.4 hPa | - | - | 36 W/m² | - |
| 1777914622 | 18.33° C | 70% | 1012.5 hPa | - | - | 44 W/m² | - |
| 1777914021 | 18.33° C | 70% | 1012.5 hPa | - | - | 52 W/m² | - |
| 1777913421 | 18.89° C | 70% | 1012.5 hPa | - | - | 60 W/m² | - |
| 1777912820 | 18.33° C | 70% | 1012.5 hPa | - | - | 70 W/m² | - |
| 1777912220 | 18.89° C | 69% | 1012.5 hPa | - | - | 74 W/m² | - |
| 1777911619 | 18.89° C | 69% | 1012.4 hPa | - | - | 78 W/m² | - |
| 1777911019 | 19.44° C | 69% | 1012.4 hPa | - | - | 98 W/m² | - |
| 1777910418 | 19.44° C | 70% | 1012.4 hPa | - | - | 112 W/m² | - |
| 1777909818 | 18.89° C | 70% | 1012.4 hPa | - | - | 114 W/m² | - |
| 1777909217 | 18.89° C | 70% | 1012.4 hPa | - | - | 100 W/m² | - |
| 1777908617 | 18.89° C | 70% | 1012.4 hPa | - | - | 94 W/m² | - |
| 1777908016 | 18.89° C | 70% | 1012.5 hPa | - | - | 96 W/m² | - |
| 1777907416 | 19.44° C | 70% | 1012.6 hPa | - | - | 76 W/m² | - |
| 1777906815 | 20° C | 65% | 1012.6 hPa | - | - | 62 W/m² | - |
| 1777906225 | 20° C | 62% | 1012.5 hPa | - | - | 118 W/m² | - |
* Rain since midnight (hover to see other rain measurements)
** Current wind speed in m/s (hover to see current wind gust speed)